This demonstration page uses our WeatherBlox Daily Observations layout. Learn more.

Left ArrowRight Arrow

34.74481, -87.66753

Hourly Observations for April 23, 2021

Temp ( °F °C ) Dew Point ( °F °C ) Humidity (%) Winds ( mph kmh ) Pressure ( in mb ) Visibility ( mi km ) Precip ( " mm )
12:53 am 00:53 Clear 49 9.4 40 4.4 71 71 Calm 30.12 1020 10 16 0.00 0.00
1:53 am 01:53 Mostly Cloudy 49 9.4 41 5 74 74 E 3 6 30.11 1020 10 16 0.00 0.00
2:53 am 02:53 Partly Cloudy 49 9.4 39 3.9 69 69 Calm 30.10 1019 10 16 0.00 0.00
3:53 am 03:53 Cloudy 50 10 39 3.9 66 66 ENE 3 6 30.10 1019 10 16 0.00 0.00
4:53 am 04:53 Cloudy 51 10.6 39 3.9 64 64 Calm 30.10 1019 10 16 0.00 0.00
5:53 am 05:53 Cloudy 51 10.6 40 4.4 66 66 Calm 30.12 1020 10 16 0.00 0.00
6:53 am 06:53 Cloudy 51 10.6 41 5 69 69 E 6 9 30.14 1021 10 16 0.00 0.00
7:53 am 07:53 Cloudy 53 11.7 41 5 64 64 ENE 5 7 30.15 1021 10 16 0.00 0.00
8:53 am 08:53 Mostly Cloudy 56 13.3 42 5.6 60 60 ESE 5 7 30.16 1021 10 16 0.00 0.00
9:53 am 09:53 Cloudy 60 15.6 40 4.4 47 47 SSE 8 13 30.15 1021 10 16 0.00 0.00
10:53 am 10:53 Cloudy 62 16.7 39 3.9 43 43 SSE 8 13 30.16 1021 10 16 0.00 0.00
11:53 am 11:53 Mostly Cloudy 67 19.4 37 2.8 33 33 SSE 12 19 30.14 1021 10 16 0.00 0.00
12:53 pm 12:53 Mostly Cloudy 69 20.6 37 2.8 31 31 VRB 6 9 30.12 1020 10 16 0.00 0.00
1:53 pm 13:53 Partly Cloudy 70 21.1 36 2.2 29 29 VRB 7 11 30.09 1019 10 16 0.00 0.00
2:53 pm 14:53 Partly Cloudy 70 21.1 37 2.8 30 30 SSE 10 17 30.06 1018 10 16 0.00 0.00
3:53 pm 15:53 Mostly Cloudy 71 21.7 38 3.3 30 30 undefined N/A 30.03 1017 10 16 0.00 0.00
4:53 pm 16:53 Mostly Sunny 72 22.2 40 4.4 31 31 ESE 8 13 29.99 1016 10 16 0.00 0.00
5:53 pm 17:53 Sunny 72 22.2 41 5 33 33 SSE 9 15 29.98 1015 10 16 0.00 0.00
6:53 pm 18:53 Mostly Sunny 68 20 42 5.6 39 39 SE 6 9 29.97 1015 10 16 0.00 0.00
7:53 pm 19:53 Clear 64 17.8 44 6.7 48 48 SE 5 7 29.96 1015 10 16 0.00 0.00
8:53 pm 20:53 Clear 64 17.8 43 6.1 46 46 SE 6 9 29.96 1015 10 16 0.00 0.00
9:53 pm 21:53 Clear 63 17.2 42 5.6 47 47 SE 6 9 29.94 1014 10 16 0.00 0.00
10:53 pm 22:53 Cloudy 64 17.8 42 5.6 45 45 SE 7 11 29.95 1014 10 16 0.00 0.00
11:53 pm 23:53 Mostly Cloudy 62 16.7 42 5.6 48 48 ESE 7 11 29.93 1014 10 16 0.00 0.00

Powered by AerisWeather